Regional Weather Roundup
Issued by NWS

Home | Current Version | Previous Version | Graphics & Text | Print | Product List | Glossary Off
Versions: 1 2 3 4 5 6 7 8 9 10 11 12 13 14 15 16 17 18 19 20 21 22 23 24 25 26 27 28 29 30 31 32 33 34 35 36 37 38 39 40 41 42 43 44 45 46 47 48 49 50

000
ASUS43 KMPX 242310
RWRMN
WEATHER ROUNDUP FOR MINNESOTA
NATIONAL WEATHER SERVICE TWIN CITIES/CHANHASSEN MN
600 PM CDT SAT JUN 24 2017


NOTE: "FAIR" INDICATES FEW OR NO CLOUDS BELOW 12,000 FEET WITH NO
SIGNIFICANT WEATHER AND/OR OBSTRUCTIONS TO VISIBILITY. N/A MEANS
CURRENT SKY AND/OR WEATHER CONDITIONS ARE NOT AVAILABLE.

MNZ060>063-068>070-250000-
   Twin Cities Metro

CITY           SKY/WX    TMP DP  RH WIND       PRES   REMARKS
TWIN CITIES    PTSUNNY   63  42  46 NW15      30.02S
ST PAUL        MOSUNNY   63  43  48 NW15G24   30.01F
CRYSTAL        CLOUDY    63  41  44 NW26G33   30.02R
BLAINE         PTSUNNY   64  45  48 W14G20    30.01R
LAKEVILLE      MOSUNNY   63  46  55 W12G21    30.03S
EDEN PRAIRIE   CLOUDY    66  44  45 W20G28    30.02S
SOUTH ST PAUL  PTSUNNY   65  43  44 NW14G21   30.01F
LAKE ELMO      PTSUNNY   61  45  55 W9G17     30.02S
$$
MNZ001>005-007-008-013>017-022>024-027-028-250000-
   Northwest Minnesota

CITY           SKY/WX    TMP DP  RH WIND       PRES   REMARKS
BEMIDJI        CLOUDY    59  48  65 W10       30.01R
HALLOCK        CLOUDY    52  50  93 N20G25    30.09R
ROSEAU         CLOUDY    57  54  88 NW10      30.02R
WARROAD        CLOUDY    59  54  82 W5        30.01R
THIEF RVR FALL CLOUDY    53  51  93 NW16G26   30.06R FOG
CROOKSTON      CLOUDY    52  52 100 N23G31    30.09R
FOSSTON        CLOUDY    52  50  93 NW16G24   30.05R
DETROIT LAKES  LGT RAIN  54  50  87 NW16G26   30.08R
MOORHEAD       CLOUDY    57  48  72 NW14G22   30.10R
PARK RAPIDS    PTSUNNY   61  46  57 W15G23    30.03R
MAHNOMEN       CLOUDY    53  49  87 NW17G24   30.06R
$$
MNZ006-009>011-018-025>026-250000-
   North Central Minnesota

CITY           SKY/WX    TMP DP  RH WIND       PRES   REMARKS
BAUDETTE       CLOUDY    60  50  69 N13       29.99R
FLAG ISLAND    LGT RAIN  55  52  88 N14       30.00R
INTL FALLS     CLOUDY    61  49  64 NW10      29.97R
WASKISH        CLOUDY    61  48  63 W8        29.99R
BIG FORK       CLOUDY    63  46  55 W5        29.97S
LONGVILLE      PTSUNNY   61  45  55 W7        30.00S
GRAND RAPIDS   CLOUDY    62  47  57 W8        30.00R
CRANE LAKE     CLOUDY    55  50  82 N5        29.98R
ORR            CLOUDY    61  45  55 NW7       29.93S
COOK           CLOUDY    59  52  77 W3        29.96R
WALKER         FAIR      60  46  61 W13       30.00S
$$
MNZ012-019>021-037-250000-
   Northeast Minnesota

CITY           SKY/WX    TMP DP  RH WIND       PRES   REMARKS
DULUTH         CLOUDY    59  48  67 NW10      29.96R
ELY            CLOUDY    59  46  63 NW10      29.94R
HIBBING        LGT RAIN  57  50  77 W6        29.97S
EVELETH        CLOUDY    58  45  62 W8        29.97S
DULUTH HARBOR  CLOUDY    64  48  55 NW17      29.95S
TWO HARBORS    PTSUNNY   64  52  63 NW9       29.92S
SILVER BAY     CLOUDY    64  46  52 W7        29.90S
GRAND MARAIS     N/A     51  51 100 CALM      29.90S
G MARAIS ARPRT LGT RAIN  54  48  82 N6        29.92S
$$
MNZ029>031-032-039>041-046>048-054>057-064-250000-
   West Central Minnesota

CITY           SKY/WX    TMP DP  RH WIND       PRES   REMARKS
FERGUS FALLS   PTSUNNY   59  48  67 NW20G25   30.06F
WHEATON        CLOUDY    63  43  48 W14G26    30.12R
MORRIS         MOSUNNY   64  43  45 NW17      30.08R
ALEXANDRIA     CLOUDY    60  45  57 NW17      30.08S
ELBOW LAKE     CLOUDY    59  47  65 W13G22    30.09S
WADENA         PTSUNNY   57  48  72 W15       30.05S
GLENWOOD       MOSUNNY   61  45  55 NW21      30.08R
APPLETON       CLOUDY    64  39  39 NW17G25   30.09R
BENSON         CLOUDY    64  41  42 N15G21    30.09S
ORTONVILLE     CLOUDY    63  41  45 NW16G24   30.11R
MADISON        PTSUNNY   66  43  42 NW15G22   30.10S
WILLMAR        FAIR      64  46  52 NW16      30.08F
$$
MNZ033>034-036-042>043-049>051-058-059-250000-
   Central Minnesota

CITY           SKY/WX    TMP DP  RH WIND       PRES   REMARKS
ST CLOUD       MOSUNNY   63  46  54 NW18G24   30.03S
SAUK CENTRE    MOCLDY    62  45  54 NW20G29   30.06S
PAYNESVILLE    MOSUNNY   63  44  50 W15G24    30.06F
AITKIN         MOSUNNY   63  45  51 W8G16     29.98S
PINE RIVER     PTSUNNY   61  48  63 W7        30.04S
BRAINERD       PTSUNNY   61  44  53 W10       30.01F
STAPLES        PTSUNNY   61  46  59 NW14      30.03S
LONG PRAIRIE   PTSUNNY   59  43  55 W16G24    30.05S
LITTLE FALLS   PTSUNNY   59  43  55 W10       30.04S
LITCHFIELD     MOSUNNY   64  46  52 NW13G23   30.06S
BUFFALO        PTSUNNY   60  46  61 NW6       30.05S
MAPLE LAKE     CLOUDY    61  50  67 N9        30.05S
HUTCHINSON     CLOUDY    63  46  54 NW15G25   30.07S
$$
MNZ037-044-045-052-053-250000-
   East Central Minnesota

CITY           SKY/WX    TMP DP  RH WIND       PRES   REMARKS
PRINCETON      MOSUNNY   66  46  48 W14G23    30.01S
MORA           MOSUNNY   63  45  51 NW12G17   30.01S
CAMBRIDGE      RAIN      61  46  59 N8G16     30.00R
RUSH CITY      RAIN      61  46  59 W9G18     30.00R
MOOSE LAKE     PTSUNNY   61  46  59 W7        29.97R
HINCKLEY       CLOUDY    63  46  55 N9        29.99R
CLOQUET        PTSUNNY   59  46  63 N9        29.97S
MCGREGOR       PTSUNNY   55  48  76 W3        30.00R
$$
MNZ071>073-080-081-089-090-097-098-250000-
   Southwest Minnesota

CITY           SKY/WX    TMP DP  RH WIND       PRES   REMARKS
MONTEVIDEO     MOSUNNY   68  43  40 N18G24    30.09S
GRANITE FALLS  PTSUNNY   66  41  41 NW16G25   30.10S
CANBY          PTSUNNY   64  41  42 W14G25    30.13R
MARSHALL       PTSUNNY   65  42  43 NW21      30.10S
REDWOOD FALLS  CLOUDY    67  42  40 NW13G23   30.08R
OLIVIA         MOSUNNY   63  43  48 NW12      30.07S
PIPESTONE      MOSUNNY   64  39  39 NW17G25   30.13S
WINDOM         MOSUNNY   64  37  36 NW17G28   30.10S
WORTHINGTON    MOSUNNY   65  41  41 NW15G31   30.12S
JACKSON        SUNNY     64  37  36 W17G28    30.11R
TRACY          PTSUNNY   67  42  41 NW14G21   30.11S
SLAYTON        MOSUNNY   64  16  15 NW16G23   30.12S HAZE
$$
MNZ065>067-074>077-082>085-091>093-250000-
   South Central Minnesota

CITY           SKY/WX    TMP DP  RH WIND       PRES   REMARKS
MANKATO        CLOUDY    64  42  44 NW22G29   30.06S
NEW ULM        PTSUNNY   64  41  42 NW18G26   30.07S
ST JAMES       MOSUNNY   64  37  36 NW16G23   30.09S
FAIRMONT       PTSUNNY   65  41  41 NW18G24   30.09R
GLENCOE        MOSUNNY   64  49  57 W17G26    30.05S
FARIBAULT      MOSUNNY   64  45  48 NW21G33   30.05S
OWATONNA       MOSUNNY   64  45  48 NW20G30   30.05S
WASECA         SUNNY     63  45  51 NW14G21   30.07R
ALBERT LEA     MOSUNNY   66  39  37 NW13G24   30.05S
$$
MNZ078>079-086>088-094>096-250000-
   Southeast Minnesota

CITY           SKY/WX    TMP DP  RH WIND       PRES   REMARKS
ROCHESTER      SUNNY     58  50  75 NW9       30.05F
RED WING       MOSUNNY   63  37  39 NW14G23   30.00S
STANTON        PTSUNNY   64  47  55 NW14G23   30.02S
DODGE CENTER   SUNNY     63  45  51 NW17G24   30.04S
WINONA         CLOUDY    54  48  82 CALM      30.03F
AUSTIN         SUNNY     63  46  55 NW10      30.04S
PRESTON        MOSUNNY   56  47  74 N5        30.05R
$$
ABBREVIATIONS USED IN REMARKS
   TC - TEMPERATURES IN CELSIUS
  WCI - WIND CHILL INDEX
   HX - HEAT INDEX
  VSB - VISIBILITY
$$




USA.gov is the U.S. government's official web portal to all federal, state and local government web resources and services.